Aurora, IL

7:34 PM CDT on May 23, 2018 (GMT -0500)
Aurora Municipal

Weather History for KARR - July, 2013

Change the Weather History Date:

Friday, July 26, 2013

  Actual Average Record
Temperature  
Mean Temperature 65 °F 71 °F  
Max Temperature 72 °F 83 °F 88 °F (2012)
Min Temperature 57 °F 59 °F 53 °F (2004)
Degree Days  
Heating Degree Days 0 0  
Month to date heating degree days 1 0  
Since 1 June heating degree days 45 41  
Since 1 July heating degree days 1 0  
Cooling Degree Days 0 6  
Month to date cooling degree days 218 181  
Year to date cooling degree days 443 377  
Since 1 June cooling degree days 363 336  
Growing Degree Days 16 (Base 50)    
Moisture  
Dew Point 62 °F    
Average Humidity 80    
Maximum Humidity 93    
Minimum Humidity 66    
Precipitation  
Precipitation 0.52 in 0.13 in 1.45 in (2007)
Month to date precipitation 2.17 3.51  
Year to date precipitation 22.63 20.40  
Sea Level Pressure  
Sea Level Pressure 29.97 in    
Wind  
Wind Speed 7 mph (SSW)    
Max Wind Speed 16 mph    
Max Gust Speed 22 mph    
Visibility 8 miles    
Events Rain    
T = Trace of Precipitation, MM = Missing Value Source: NWS Daily Summary

Daily Weather History Graph

Daily Weather History Graph

Search for Another Location

Airport or City:

Astronomy

Jul. 26, 2013 Rise Set
Actual Time 5:42 AM CDT 8:17 PM CDT
Civil Twilight 5:10 AM CDT 8:49 PM CDT
Nautical Twilight 4:30 AM CDT 9:29 PM CDT
Astronomical Twilight 3:45 AM CDT 10:14 PM CDT
Moon 10:26 PM CDT (7/26) 10:23 AM CDT (7/26)
Length of Visible Light 15h 39m
Length of Day
14h 35m
Waning Gibbous, 80% of the Moon is Illuminated
Jul 26
Waning Gibbous
Jul 29
Last Quarter
Aug 6
New
Aug 14
First Quarter
Aug 20
Full

Hourly Weather History & Observations

Time (CDT) Temp. Dew Point Humidity Pressure Visibility Wind Dir Wind Speed Gust Speed Precip Events Conditions
12:52 AM 69.1 °F 57.9 °F 68% 30.01 in 10.0 mi South 9.2 mph - N/A   Clear
1:52 AM 68.0 °F 57.9 °F 70% 30.01 in 10.0 mi SSW 10.4 mph - N/A   Clear
2:52 AM 68.0 °F 59.0 °F 73% 30.00 in 10.0 mi SW 4.6 mph - N/A   Clear
3:52 AM 66.9 °F 57.9 °F 73% 29.99 in 10.0 mi South 5.8 mph - N/A   Clear
4:52 AM 64.9 °F 59.0 °F 81% 30.01 in 10.0 mi SSW 5.8 mph - 0.00 in Rain Light Rain
5:52 AM 64.0 °F 60.1 °F 87% 30.01 in 10.0 mi South 6.9 mph - 0.03 in Rain Light Rain
6:52 AM 64.0 °F 60.1 °F 87% 30.00 in 10.0 mi SSE 5.8 mph - 0.00 in   Overcast
7:52 AM 66.0 °F 61.0 °F 84% 30.01 in 10.0 mi South 4.6 mph - N/A   Overcast
8:37 AM 64.4 °F 60.8 °F 88% 30.03 in 2.5 mi Calm Calm - 0.03 in Rain Light Rain
8:52 AM 64.9 °F 62.1 °F 90% 30.04 in 3.0 mi WNW 3.5 mph - 0.05 in Rain Rain
9:50 AM 64.4 °F 62.6 °F 94% 30.03 in 1.8 mi SSE 5.8 mph - 0.15 in Rain Rain
9:51 AM 64.9 °F 62.1 °F 90% 30.02 in 1.8 mi South 6.9 mph - 0.15 in Rain Rain
9:55 AM 64.4 °F 62.6 °F 94% 30.03 in 3.0 mi South 6.9 mph - 0.01 in Rain Light Rain
10:52 AM 66.0 °F 62.1 °F 87% 30.01 in 10.0 mi South 9.2 mph - 0.03 in   Overcast
11:44 AM 66.2 °F 62.6 °F 88% 30.02 in 1.8 mi SSW 11.5 mph 17.3 mph 0.07 in Rain Rain
11:52 AM 64.9 °F 62.1 °F 90% 30.01 in 1.0 mi SSW 8.1 mph - 0.14 in Rain Heavy Rain
12:08 PM 64.4 °F 62.6 °F 94% 30.01 in 2.0 mi South 10.4 mph - 0.05 in Rain Rain
12:25 PM 64.4 °F 62.6 °F 94% 30.00 in 3.0 mi South 8.1 mph - 0.08 in Rain Light Rain
12:52 PM 66.0 °F 63.0 °F 90% 29.98 in 9.0 mi South 5.8 mph - 0.10 in Rain Light Rain
1:52 PM 72.0 °F 66.0 °F 81% 29.95 in 10.0 mi SSW 8.1 mph - 0.00 in   Overcast
2:04 PM 71.6 °F 64.4 °F 78% 29.96 in 9.0 mi SSW 10.4 mph - 0.00 in Rain Light Rain
2:44 PM 69.8 °F 64.4 °F 83% 29.95 in 10.0 mi SSW 12.7 mph - 0.02 in   Overcast
2:52 PM 70.0 °F 64.9 °F 84% 29.94 in 10.0 mi SSW 13.8 mph 20.7 mph 0.02 in   Overcast
3:52 PM 71.1 °F 64.0 °F 78% 29.92 in 10.0 mi SSW 12.7 mph - N/A   Overcast
4:52 PM 70.0 °F 64.0 °F 81% 29.91 in 10.0 mi South 9.2 mph - N/A   Overcast
5:52 PM 71.1 °F 64.9 °F 81% 29.91 in 10.0 mi South 8.1 mph - N/A   Overcast
6:52 PM 71.1 °F 64.9 °F 81% 29.91 in 8.0 mi SSW 9.2 mph - N/A   Overcast
7:20 PM 69.8 °F 64.4 °F 83% 29.92 in 8.0 mi SSW 6.9 mph - N/A   Partly Cloudy
7:52 PM 70.0 °F 64.9 °F 84% 29.90 in 7.0 mi SSW 6.9 mph - N/A   Scattered Clouds
8:34 PM 69.8 °F 66.2 °F 88% 29.92 in 5.0 mi North 8.1 mph - N/A   Mostly Cloudy
8:52 PM 66.9 °F 61.0 °F 81% 29.91 in 10.0 mi NNW 3.5 mph - N/A   Mostly Cloudy
9:52 PM 64.9 °F 59.0 °F 81% 29.91 in 10.0 mi WNW 6.9 mph - N/A   Partly Cloudy
10:52 PM 61.0 °F 57.0 °F 87% 29.91 in 10.0 mi WNW 5.8 mph - N/A   Clear
11:52 PM 57.0 °F 55.0 °F 93% 29.91 in 10.0 mi West 5.8 mph - N/A   Clear